Tracking 31011 objects as of 11-Jul-2025
HD Live streaming from Space Station
objects crossing your sky now

SATCOM 3

Track SATCOM 3 now!
SATCOM 3 is classified as:


NORAD ID: 11635
Int'l Code: 1979-101A
Perigee: 8,364.0 km
Apogee: 35,459.2 km
Inclination: 8.4 °
Period: 788.9 minutes
Semi major axis: 28282 km
RCS: 6.1128 m2 (large)
Launch date: December 7, 1979
Source: United States (US)
Launch site: AIR FORCE EASTERN TEST RANGE (AFETR)
Your satellite tracking list
Your tracking list is empty




NASA's NSSDC Master Catalog

Two Line Element Set (TLE):
1 11635U 79101A   25191.46146148 -.00000122  00000-0  00000-0 0  9992
2 11635   8.3877 115.3584 4790090  42.8065 110.9791  1.82525732217735
Source of the keplerian elements: AFSPC